Location: NJAA Observatory
(40.6819°N, 74.8979°W)
Time: 17:35:59
(UTC-05:00)

Transit 2A Rocket - Visible Passes

Search period start: 24 November 2014 00:00
Search period end: 04 December 2014 00:00
Orbit: 589 x 919 km, 66.7° (Epoch: 24 November)

Date Brightness Start Highest point End Pass type
(mag) Time Alt. Az. Time Alt. Az. Time Alt. Az.
24 Nov 6.0 17:24:47 10° N 17:29:48 30° NE 17:35:03 10° ESE visible
24 Nov 6.1 19:07:04 10° NW 19:12:41 50° WSW 19:17:19 16° S visible
25 Nov 5.4 18:25:05 10° NNW 18:30:55 81° WSW 18:37:01 10° SSE visible
25 Nov 8.2 20:10:44 10° W 20:12:48 12° WSW 20:14:52 10° WSW visible
26 Nov 5.3 17:43:16 10° NNW 17:49:03 65° ENE 17:55:06 10° SE visible
26 Nov 7.6 19:27:01 10° WNW 19:31:17 21° WSW 19:35:39 10° SSW visible
27 Nov 5.7 17:01:37 10° NNW 17:07:05 41° NE 17:12:47 10° ESE visible
27 Nov 6.9 18:44:26 10° NW 18:49:41 34° WSW 18:55:06 10° S visible
28 Nov 6.0 18:02:15 10° NW 18:07:59 56° WSW 18:13:56 10° S visible
29 Nov 5.4 17:20:18 10° NNW 17:26:11 90° WSW 17:32:18 10° SSE visible
29 Nov 8.3 19:05:15 10° WNW 19:08:08 14° WSW 19:11:04 10° SW visible
30 Nov 7.7 18:22:00 10° WNW 18:26:37 24° WSW 18:31:19 10° SSW visible
01 Dec 6.9 17:39:33 10° NW 17:44:59 39° WSW 17:50:35 10° S visible
02 Dec 6.0 16:57:26 10° NW 17:03:15 64° WSW 17:09:17 10° SSE visible
03 Dec 8.4 05:53:46 10° ESE 05:55:17 11° ESE 05:56:49 10° E visible
03 Dec 8.5 17:59:59 10° WNW 18:03:28 16° WSW 18:07:01 10° SW visible
